SL-16 DEB, 22616

Orbit data source: Space-Track

SL-16 DEB, 22616 is space debris in LEO originally from a launch on Fri, 26 Mar 1993 UTC launched from the Tyuratam Missile And Space Complex (TTMTR). Debris objects in space refer to the collection of defunct objects orbiting the Earth. Examples of debris include non-operational satellites, rocket bodies, and fragments generated from explosions, collisions, or faulty payload assembly.

Loading next visibility...
Identifier
22616, 1993-016AA
Orbit
LEO
Last TLE update
12 hours ago
Origin
Manufacturer
Unknown
Mission
Spacecraft
Bus & Motor
Unknown
Mass
Unknown
Launch date (UTC)
1993-03-26 (32 years ago)
Launch vehicle
Unknown
Launch site
Tyuratam Missile And Space Complex (TTMTR)
Object type
Payload
Rocket body
Debris
Shape & HBR
Unknown
Radar Cross Section
Small (<0.1 m²)

Expand to show TLE details & history

TLE from 12 hours ago
0 SL-16 DEB
1 22616U 93016AA  25181.89641181  .00000026  00000-0  65798-4 0  9998
2 22616  70.9944 227.6310 0188655 315.9311 228.0231 13.73920860616830
Epoch: 2025-06-30T21:30Z
TLE epoch observation values (Epoch: 2025-06-30T21:30:49.98Z)
Latitude
-2.3601°
Longitude
166.53234°
Altitude
1,082.566 km
Speed
7.264 km/s
True Right ascension
03h 13m 45s
True Declination
-2° 20' 48"
Sunlit
Object was in daylight at epoch
Visualization orbit readout
Latitude
58.58406°
Longitude
18.89793°
Altitude
1,038.043 km
Speed
7.317 km/s
Apparent Right ascension
12h 10m 24s
Apparent Declination
29° 51' 30"
Sunlit
Object is in daylight
Visualization observer readout
Local Sidereal Time
20:47:31
Azimuth
317.56° NNW
Elevation
-5.835°
Doppler factor
1
Orbital elements
Apogee altitude
1,122.374 km
Perigee altitude
844.612 km
Semi-major axis
7,361.63 km
Eccentricity
0.01887
Inclination
70.9944°
RAAN
227.631°
Arg. of periapsis
315.9311°
True anomaly
Unknown
Mean anomaly
228.0231°
Eccentric anomaly
Unknown
Mean motion
3.43623 °/min
Orbital period
104.77 mins
BSTAR
0.000065798
Loading maneuver chart data...
Loading SW <> Apogee altitude chart data...
Loading historical data...
Loading historical data...
Loading historical data...
Loading historical data...
Loading historical data...
Loading historical data...
Loading historical data...

SL-16 DEB Visibility forecast

Observer location: undefined°, undefined°

Span
Click to sort rows by Start time (UTC) header in descending order
Start Az.
Max El. time (UTC)
Max El. Az.
Max El.
End time (UTC)
End Az.
11 mins2025-07-01 12:53:17.161Z359.964° N2025-07-01 12:58:17.161Z50.584° ENE25.387°2025-07-01 13:04:17.161Z110.226° ESE
12 mins2025-07-01 14:40:17.161Z327.736° NNW2025-07-01 14:46:17.161Z248.964° W40.902°2025-07-01 14:52:17.161Z176.39° S
11 mins2025-07-02 04:11:17.161Z193.781° SSW2025-07-02 04:16:17.161Z80.481° E44.033°2025-07-02 04:22:17.161Z26.144° NE
7 mins2025-07-02 06:01:17.161Z280.205° WNW2025-07-02 06:04:17.161Z314.566° NW18.797°2025-07-02 06:08:17.161Z354.037° N
|